Simultaneous Nadir Overpasses (SNOs) Predictions

Prediction of SNOs between METOP-C and LANDSAT-8 Satellite Orbit:

Table of predicted SNOs for the next 14.0 days since TLE Epoch: 2/5/2022
Index Date (METOP-C) Time (METOP-C) Lat,Lon (METOP-C) SZA (METOP-C ) Date (LANDSAT-8) Time (LANDSAT-8) Lat,Lon (LANDSAT-8) SZA (LANDSAT-8 ) Distance(km) Time Diff (sec)
1 02/07/2022 09:59:24 -81.10,-110.48 82.07 02/07/2022 09:59:53 -81.10,-110.61 82.07 2.23 29
2 02/07/2022 10:50:03 81.11, 57.23 97.97 02/07/2022 10:49:19 81.11, 57.14 97.94 1.69 44
3 02/10/2022 05:33:47 -81.09, -44.34 83.00 02/10/2022 05:34:08 -81.09, -44.39 82.99 0.83 21
4 02/10/2022 06:24:25 81.11, 123.67 97.08 02/10/2022 06:23:33 81.12, 123.69 97.06 0.39 52
5 02/13/2022 01:08:09 -81.09, 22.12 83.92 02/13/2022 01:08:22 -81.09, 22.09 83.92 0.63 13
6 02/13/2022 01:58:47 81.11,-169.93 96.15 02/13/2022 01:57:47 81.12,-169.86 96.14 1.17 60
7 02/15/2022 20:42:30 -81.09, 88.54 84.87 02/15/2022 20:42:35 -81.08, 88.46 84.88 1.65 5
8 02/15/2022 21:33:08 81.11,-103.56 95.19 02/15/2022 21:32:00 81.11,-103.52 95.17 0.81 68
9 02/18/2022 15:26:11 81.07, -12.86 94.12 02/18/2022 15:27:22 81.07, -12.93 94.13 1.30 71



Historial Predications of SNOs between METOP-C and LANDSAT-8
